Погода в Тростянце

Украина / Сумская область     50°28′51″N   34°58′15″E
темп.,
°C
ветер,
м/с
пор.,
м/с
влажн.,
%
обл.,
%
осадки,
мм/ч
давл.,
гПа
погр.,
м
9 декабря, чт
чт923:00+3всв4896100 0.0 1011243
02:00+3всв489784 0.0 1011198
05:00+2всв489779 0.0 1012222
08:00+3всв4995100 0.0 1013285
11:00+4всв479497 0.1 1014260
14:00+4всв4793100 0.2 1015283
17:00+4всв479599 0.0 1016254
20:00+4в3697100 0.2 1017205
10 декабря, пт
пт1023:00+5вюв3698100 0.2 1019174
02:00+5вюв3697100 0.3 1020170
05:00+5вюв4896100 0.1 1020285
08:00+6вюв5996100 0.2 1021388
11:00+6юв5996100 0.3 1022397
14:00+7юв5990100 0.4 1022523
17:00+6вюв61089100 0.0 1023401
20:00+5вюв6139454 0.0 1023404
11 декабря, сб
сб1123:00+5вюв61391100 0.0 1024466
02:00+3вюв61391100 0.0 1024392
05:00+3вюв71487100 0.0 1023411
08:00+2вюв71683100 0.0 1024457
11:00+3вюв81675100 0.0 1024557
14:00+4вюв714725 0.0 1024565
17:00+2вюв7147895 0.0 1025444
20:00+2юв61280100 0.0 1026420
12 декабря, вс
вс1223:00+1вюв5118498 0.0 1027340
02:000вюв5118928 0.0 1027290
05:000вюв5118898 0.0 1027288
08:000в61383100 0.0 1028333
11:00+2вюв71469100 0.0 1027444
14:00+3вюв71465100 0.0 1026504
17:00+2вюв71666100 0.0 1026493
20:00+2вюв81661100 0.0 1026519
13 декабря, пн
пн1323:00+1вюв71556100 0.0 1025479
02:00+1вюв71556100 0.0 1024487
05:00+1вюв71558100 0.0 1024522
08:00+1вюв71559100 0.0 1023542
11:00+2вюв71454100 0.0 1022652
14:00+2вюв71153100 0.0 1022597
17:00+1вюв61258100 0.0 1022439
20:00+1вюв51163100 0.0 1023388